TimeEDT,TemperatureF,Dew PointF,Humidity,Sea Level PressureIn,VisibilityMPH,Wind Direction,Wind SpeedMPH,Gust SpeedMPH,PrecipitationIn,Events,Conditions,WindDirDegrees,DateUTC
12:20 AM,46.4,29.5,52,29.93,10.0,West,10.4,18.4,N/A,,Overcast,280,2012-11-03 04:20:00
12:40 AM,46.0,29.3,52,29.94,10.0,WNW,12.7,20.7,N/A,,Overcast,290,2012-11-03 04:40:00
1:00 AM,46.0,28.4,50,29.94,10.0,WNW,10.4,-,N/A,,Overcast,300,2012-11-03 05:00:00
1:25 AM,45.9,28.4,51,29.94,10.0,WNW,9.2,16.1,N/A,,Overcast,290,2012-11-03 05:25:00
1:45 AM,45.9,28.4,51,29.94,10.0,West,8.1,-,N/A,,Overcast,280,2012-11-03 05:45:00
2:05 AM,45.7,28.2,51,29.94,10.0,WNW,8.1,17.3,N/A,,Overcast,290,2012-11-03 06:05:00
2:50 AM,45.9,27.5,49,29.94,10.0,West,9.2,-,N/A,,Overcast,280,2012-11-03 06:50:00
3:10 AM,45.7,27.9,50,29.95,10.0,WNW,6.9,-,N/A,,Overcast,300,2012-11-03 07:10:00
3:30 AM,45.5,27.9,50,29.95,10.0,West,6.9,-,N/A,,Overcast,280,2012-11-03 07:30:00
3:50 AM,45.5,27.9,50,29.95,10.0,WNW,9.2,-,N/A,,Overcast,290,2012-11-03 07:50:00
4:15 AM,45.5,27.7,50,29.94,10.0,West,11.5,17.3,N/A,,Overcast,280,2012-11-03 08:15:00
4:35 AM,45.5,27.5,49,29.94,10.0,West,8.1,-,N/A,,Overcast,280,2012-11-03 08:35:00
4:55 AM,45.5,27.5,49,29.95,10.0,West,8.1,16.1,N/A,,Overcast,280,2012-11-03 08:55:00
5:15 AM,45.1,27.5,50,29.96,10.0,West,9.2,-,N/A,,Overcast,280,2012-11-03 09:15:00
5:40 AM,45.1,27.3,50,29.96,10.0,WNW,4.6,-,N/A,,Overcast,290,2012-11-03 09:40:00
6:00 AM,45.1,27.0,49,29.97,10.0,West,10.4,18.4,N/A,,Overcast,280,2012-11-03 10:00:00
6:20 AM,45.5,27.1,49,29.98,10.0,WNW,9.2,-,N/A,,Overcast,290,2012-11-03 10:20:00
6:40 AM,45.1,27.3,50,29.98,10.0,WNW,5.8,-,N/A,,Overcast,290,2012-11-03 10:40:00
7:05 AM,45.3,27.1,49,29.99,10.0,WNW,5.8,16.1,N/A,,Overcast,300,2012-11-03 11:05:00
7:25 AM,45.1,27.3,50,30.00,10.0,West,8.1,-,N/A,,Overcast,280,2012-11-03 11:25:00
7:45 AM,45.1,27.5,50,30.01,10.0,WNW,6.9,-,N/A,,Overcast,300,2012-11-03 11:45:00
8:05 AM,45.1,27.5,50,30.02,10.0,West,6.9,-,N/A,,Overcast,280,2012-11-03 12:05:00
8:50 AM,45.5,27.5,49,30.03,10.0,NW,9.2,18.4,N/A,,Overcast,320,2012-11-03 12:50:00
9:55 AM,47.5,28.0,47,30.03,10.0,WNW,10.4,18.4,N/A,,Overcast,290,2012-11-03 13:55:00
10:15 AM,47.3,27.7,47,30.03,10.0,West,11.5,18.4,N/A,,Scattered Clouds,280,2012-11-03 14:15:00
10:35 AM,48.4,27.5,44,30.03,10.0,WNW,13.8,20.7,N/A,,Mostly Cloudy,300,2012-11-03 14:35:00
10:55 AM,48.2,27.3,44,30.03,10.0,NW,13.8,24.2,N/A,,Overcast,310,2012-11-03 14:55:00
11:20 AM,48.7,28.0,45,30.03,10.0,NW,12.7,20.7,N/A,,Mostly Cloudy,320,2012-11-03 15:20:00
11:40 AM,48.2,27.7,45,30.03,10.0,NW,12.7,23.0,N/A,,Overcast,310,2012-11-03 15:40:00
12:00 PM,47.7,27.7,46,30.03,10.0,NW,11.5,20.7,N/A,,Overcast,310,2012-11-03 16:00:00
12:20 PM,48.2,27.7,45,30.03,10.0,NW,11.5,19.6,N/A,,Overcast,320,2012-11-03 16:20:00
12:45 PM,48.2,28.4,46,30.02,10.0,West,11.5,19.6,N/A,,Overcast,280,2012-11-03 16:45:00
1:25 PM,48.2,28.8,47,30.02,10.0,NW,5.8,18.4,N/A,,Overcast,310,2012-11-03 17:25:00
1:45 PM,48.2,28.4,46,30.03,10.0,WNW,10.4,25.3,N/A,,Overcast,300,2012-11-03 17:45:00
2:10 PM,48.6,28.2,45,30.03,10.0,WNW,10.4,16.1,N/A,,Overcast,300,2012-11-03 18:10:00
2:50 PM,49.1,28.9,46,30.02,10.0,West,6.9,18.4,N/A,,Overcast,270,2012-11-03 18:50:00
3:10 PM,49.1,28.8,45,30.02,10.0,WNW,10.4,20.7,N/A,,Overcast,300,2012-11-03 19:10:00
3:35 PM,49.3,28.4,45,30.02,10.0,NW,15.0,24.2,N/A,,Overcast,310,2012-11-03 19:35:00
3:55 PM,49.5,28.6,45,30.02,10.0,WNW,10.4,21.9,N/A,,Overcast,300,2012-11-03 19:55:00
4:15 PM,49.1,29.1,46,30.02,10.0,West,5.8,21.9,N/A,,Overcast,280,2012-11-03 20:15:00
5:00 PM,48.9,28.0,44,30.03,10.0,NW,12.7,19.6,N/A,,Overcast,310,2012-11-03 21:00:00
5:20 PM,48.7,28.6,46,30.04,10.0,WNW,13.8,20.7,N/A,,Overcast,300,2012-11-03 21:20:00
5:40 PM,48.6,28.6,46,30.04,10.0,NW,10.4,20.7,N/A,,Overcast,310,2012-11-03 21:40:00
6:00 PM,48.2,29.1,48,30.03,10.0,WNW,11.5,17.3,N/A,,Overcast,300,2012-11-03 22:00:00
6:25 PM,47.7,29.3,49,30.04,10.0,WNW,8.1,-,N/A,,Overcast,300,2012-11-03 22:25:00
6:45 PM,47.5,29.3,49,30.04,10.0,WNW,6.9,-,N/A,,Overcast,290,2012-11-03 22:45:00
7:25 PM,47.7,29.7,50,30.04,10.0,WNW,9.2,-,N/A,,Overcast,300,2012-11-03 23:25:00
7:50 PM,46.6,29.8,52,30.05,10.0,WNW,3.5,-,N/A,,Scattered Clouds,290,2012-11-03 23:50:00
8:10 PM,46.0,30.0,54,30.04,10.0,NW,4.6,-,N/A,,Scattered Clouds,320,2012-11-04 00:10:00
8:30 PM,45.9,30.2,54,30.05,10.0,Calm,Calm,-,N/A,,Clear,0,2012-11-04 00:30:00
8:50 PM,45.5,31.3,58,30.06,10.0,West,3.5,-,N/A,,Mostly Cloudy,270,2012-11-04 00:50:00
9:15 PM,46.0,31.1,56,30.06,10.0,West,3.5,-,N/A,,Overcast,280,2012-11-04 01:15:00
9:35 PM,46.0,31.1,56,30.07,10.0,Calm,Calm,-,N/A,,Overcast,0,2012-11-04 01:35:00
9:55 PM,45.1,31.5,59,30.07,10.0,Calm,Calm,-,N/A,,Scattered Clouds,0,2012-11-04 01:55:00
10:15 PM,44.4,31.8,61,30.07,10.0,West,3.5,-,N/A,,Scattered Clouds,260,2012-11-04 02:15:00
10:40 PM,44.6,31.3,60,30.07,10.0,NW,3.5,-,N/A,,Scattered Clouds,310,2012-11-04 02:40:00
11:00 PM,44.6,30.6,58,30.07,10.0,Calm,Calm,-,N/A,,Clear,0,2012-11-04 03:00:00
11:20 PM,44.2,30.0,57,30.08,10.0,Calm,Calm,-,N/A,,Clear,0,2012-11-04 03:20:00
11:40 PM,43.0,30.0,60,30.08,10.0,Calm,Calm,-,N/A,,Scattered Clouds,0,2012-11-04 03:40:00